TimeCST,TemperatureF,Dew PointF,Humidity,Sea Level PressureIn,VisibilityMPH,Wind Direction,Wind SpeedMPH,Gust SpeedMPH,PrecipitationIn,Events,Conditions,WindDirDegrees,DateUTC
12:52 AM,19.0,12.0,74,29.73,6.0,SSW,17.3,24.2,0.00,Snow,Light Snow,200,2014-01-16 06:52:00
1:52 AM,19.9,12.9,74,29.71,9.0,SSW,15.0,-,0.00,,Overcast,200,2014-01-16 07:52:00
2:52 AM,21.0,14.0,74,29.68,10.0,SSW,19.6,-,N/A,,Overcast,200,2014-01-16 08:52:00
3:52 AM,21.9,15.1,75,29.64,9.0,SSW,15.0,-,0.00,Snow,Light Snow,210,2014-01-16 09:52:00
4:52 AM,23.0,16.0,74,29.59,9.0,SSW,16.1,25.3,0.00,,Mostly Cloudy,210,2014-01-16 10:52:00
5:52 AM,24.1,17.1,75,29.57,10.0,SSW,15.0,21.9,N/A,,Partly Cloudy,210,2014-01-16 11:52:00
6:52 AM,24.1,17.1,75,29.56,10.0,SSW,18.4,23.0,N/A,,Scattered Clouds,210,2014-01-16 12:52:00
7:52 AM,25.0,19.0,78,29.55,10.0,SSW,15.0,23.0,N/A,,Mostly Cloudy,210,2014-01-16 13:52:00
8:52 AM,27.0,21.0,78,29.55,10.0,SSW,15.0,26.5,N/A,,Mostly Cloudy,210,2014-01-16 14:52:00
9:23 AM,28.0,21.9,78,29.51,10.0,SW,20.7,-,N/A,,Overcast,220,2014-01-16 15:23:00
9:52 AM,28.9,23.0,78,29.53,10.0,SW,18.4,-,N/A,,Mostly Cloudy,220,2014-01-16 15:52:00
10:47 AM,30.2,24.8,80,29.48,9.0,SSW,18.4,25.3,N/A,,Mostly Cloudy,210,2014-01-16 16:47:00
10:52 AM,30.0,24.1,79,29.51,9.0,SW,18.4,25.3,N/A,,Mostly Cloudy,220,2014-01-16 16:52:00
11:04 AM,30.0,24.1,79,29.48,1.5,SW,18.4,-,0.00,Snow,Light Snow,220,2014-01-16 17:04:00
11:08 AM,30.0,25.0,82,29.47,0.8,SW,20.7,27.6,0.00,Snow,Light Snow,220,2014-01-16 17:08:00
11:28 AM,30.0,26.1,85,29.46,1.2,SSW,15.0,-,0.00,Snow,Light Snow,210,2014-01-16 17:28:00
11:41 AM,28.9,26.1,89,29.46,0.5,SW,12.7,-,0.00,Snow,Light Snow,220,2014-01-16 17:41:00
11:49 AM,28.4,26.6,93,29.45,1.0,SSW,13.8,-,0.01,Snow,Light Snow,210,2014-01-16 17:49:00
11:52 AM,28.9,27.0,92,29.49,1.5,SSW,15.0,-,0.01,Snow,Light Snow,210,2014-01-16 17:52:00
12:07 PM,30.0,26.1,85,29.45,3.0,SSW,16.1,-,0.01,Snow,Light Snow,210,2014-01-16 18:07:00
12:34 PM,30.9,26.1,82,29.44,3.0,SW,17.3,-,0.01,Snow,Light Snow,220,2014-01-16 18:34:00
12:52 PM,30.9,26.1,82,29.47,5.0,SW,13.8,-,0.01,,Haze,220,2014-01-16 18:52:00
1:46 PM,30.2,28.4,93,29.43,1.5,SSW,12.7,-,0.00,Snow,Light Snow,210,2014-01-16 19:46:00
1:47 PM,30.9,28.0,89,29.46,1.5,SSW,13.8,-,0.00,Snow,Light Snow,210,2014-01-16 19:47:00
2:26 PM,32.0,28.9,88,29.43,4.0,SSW,10.4,-,0.01,Snow,Light Snow,210,2014-01-16 20:26:00
2:45 PM,32.0,28.9,88,29.43,3.0,SW,10.4,-,0.01,Snow,Light Snow,220,2014-01-16 20:45:00
2:52 PM,32.0,28.9,88,29.46,3.0,SW,11.5,-,0.01,Snow,Light Snow,220,2014-01-16 20:52:00
3:24 PM,32.0,28.9,88,29.44,4.0,SW,10.4,-,0.00,Snow,Light Snow,220,2014-01-16 21:24:00
3:52 PM,32.0,30.0,92,29.48,4.0,SW,8.1,-,0.00,Snow,Light Snow,220,2014-01-16 21:52:00
4:06 PM,32.0,30.0,92,29.45,2.5,SW,5.8,-,0.00,Snow,Light Snow,220,2014-01-16 22:06:00
4:15 PM,32.0,30.0,92,29.45,3.0,SW,6.9,-,0.00,Snow,Light Snow,230,2014-01-16 22:15:00
4:52 PM,33.1,30.0,89,29.49,3.0,SW,5.8,-,0.00,Snow,Light Snow,230,2014-01-16 22:52:00
5:52 PM,33.1,30.0,89,29.51,6.0,SW,5.8,-,0.00,Snow,Light Snow,230,2014-01-16 23:52:00
6:30 PM,33.1,30.9,92,29.49,2.5,WSW,5.8,-,0.00,Snow,Light Snow,250,2014-01-17 00:30:00
6:40 PM,30.9,28.0,89,29.51,1.8,WNW,19.6,26.5,0.01,Rain-Snow,Light Snow,290,2014-01-17 00:40:00
6:47 PM,30.2,26.6,86,29.52,2.0,NW,19.6,27.6,0.02,Rain-Snow,Light Snow,310,2014-01-17 00:47:00
6:52 PM,30.0,25.0,82,29.55,2.0,WNW,15.0,26.5,0.02,Rain-Snow,Light Snow,300,2014-01-17 00:52:00
7:00 PM,30.0,24.1,79,29.53,6.0,NW,21.9,27.6,0.00,Rain-Snow,Light Snow,310,2014-01-17 01:00:00
7:44 PM,28.0,25.0,88,29.55,3.0,WNW,13.8,-,0.00,Snow,Light Snow,290,2014-01-17 01:44:00
7:49 PM,28.4,24.8,86,29.55,4.0,West,10.4,23.0,0.00,Snow,Light Freezing Drizzle,280,2014-01-17 01:49:00
7:52 PM,28.0,24.1,85,29.58,5.0,West,15.0,23.0,0.00,Snow,Light Freezing Drizzle,280,2014-01-17 01:52:00
8:04 PM,28.0,21.9,78,29.56,9.0,WNW,15.0,21.9,0.00,Snow,Light Snow,290,2014-01-17 02:04:00
8:52 PM,27.0,17.1,66,29.61,8.0,WNW,15.0,21.9,0.00,Snow,Light Snow,290,2014-01-17 02:52:00
9:52 PM,24.1,15.1,69,29.64,9.0,West,15.0,-,0.00,Snow,Light Snow,280,2014-01-17 03:52:00
10:28 PM,23.0,14.0,68,29.62,9.0,WNW,13.8,-,0.00,,Overcast,300,2014-01-17 04:28:00
10:52 PM,21.9,15.1,75,29.66,10.0,WNW,12.7,-,0.00,,Mostly Cloudy,290,2014-01-17 04:52:00
11:52 PM,18.0,10.9,74,29.68,10.0,WNW,20.7,26.5,N/A,,Mostly Cloudy,290,2014-01-17 05:52:00